TimeEDT,TemperatureF,Dew PointF,Humidity,Sea Level PressureIn,VisibilityMPH,Wind Direction,Wind SpeedMPH,Gust SpeedMPH,PrecipitationIn,Events,Conditions,WindDirDegrees,DateUTC
12:15 AM,73.6,73.4,99,30.30,10.0,Calm,Calm,-,N/A,,Clear,0,2013-07-15 04:15:00
12:35 AM,73.6,73.4,99,30.29,10.0,Calm,Calm,-,N/A,,Clear,0,2013-07-15 04:35:00
12:55 AM,73.0,73.0,100,30.29,10.0,Calm,Calm,-,N/A,,Clear,0,2013-07-15 04:55:00
1:15 AM,73.2,73.0,99,30.29,10.0,Calm,Calm,-,N/A,,Clear,0,2013-07-15 05:15:00
1:35 AM,73.4,73.4,100,30.29,10.0,Calm,Calm,-,N/A,,Clear,0,2013-07-15 05:35:00
1:55 AM,73.2,72.9,99,30.29,10.0,Calm,Calm,-,N/A,,Clear,0,2013-07-15 05:55:00
2:15 AM,72.5,72.5,100,30.29,7.0,Calm,Calm,-,N/A,,Clear,0,2013-07-15 06:15:00
2:35 AM,72.5,72.5,100,30.28,10.0,Calm,Calm,-,N/A,,Clear,0,2013-07-15 06:35:00
2:55 AM,72.5,72.5,100,30.28,10.0,Calm,Calm,-,N/A,,Clear,0,2013-07-15 06:55:00
3:15 AM,72.7,72.7,100,30.28,10.0,Calm,Calm,-,N/A,,Clear,0,2013-07-15 07:15:00
3:35 AM,72.7,72.7,100,30.28,10.0,Calm,Calm,-,N/A,,Clear,0,2013-07-15 07:35:00
3:55 AM,72.7,72.7,100,30.28,10.0,Calm,Calm,-,N/A,,Clear,0,2013-07-15 07:55:00
4:15 AM,72.7,72.7,100,30.28,7.0,Calm,Calm,-,N/A,,Clear,0,2013-07-15 08:15:00
4:35 AM,72.9,72.9,100,30.28,7.0,Calm,Calm,-,N/A,,Clear,0,2013-07-15 08:35:00
4:55 AM,73.0,73.0,100,30.28,7.0,Calm,Calm,-,N/A,,Clear,0,2013-07-15 08:55:00
5:15 AM,73.0,73.0,100,30.28,7.0,NE,3.5,-,N/A,,Clear,40,2013-07-15 09:15:00
5:35 AM,73.4,73.4,100,30.29,7.0,Calm,Calm,-,N/A,,Clear,0,2013-07-15 09:35:00
5:55 AM,73.4,73.4,100,30.29,7.0,Calm,Calm,-,N/A,,Clear,0,2013-07-15 09:55:00
6:15 AM,73.0,73.0,100,30.29,5.0,Calm,Calm,-,N/A,,Clear,0,2013-07-15 10:15:00
6:35 AM,73.0,73.0,100,30.29,5.0,Calm,Calm,-,N/A,,Clear,0,2013-07-15 10:35:00
6:55 AM,73.4,73.4,100,30.30,5.0,Calm,Calm,-,N/A,,Clear,0,2013-07-15 10:55:00
7:15 AM,74.3,74.3,100,30.31,7.0,Calm,Calm,-,N/A,,Clear,0,2013-07-15 11:15:00
7:35 AM,75.2,74.5,98,30.31,7.0,ENE,3.5,-,N/A,,Clear,70,2013-07-15 11:35:00
7:55 AM,76.1,74.7,95,30.31,10.0,Calm,Calm,-,N/A,,Clear,0,2013-07-15 11:55:00
8:15 AM,77.4,75.4,94,30.31,10.0,Calm,Calm,-,N/A,,Clear,0,2013-07-15 12:15:00
8:35 AM,78.3,75.9,92,30.31,10.0,Calm,Calm,-,N/A,,Clear,0,2013-07-15 12:35:00
8:55 AM,79.3,76.3,90,30.31,10.0,Calm,Calm,-,N/A,,Scattered Clouds,0,2013-07-15 12:55:00
9:15 AM,80.2,76.3,88,30.31,10.0,ENE,3.5,-,N/A,,Mostly Cloudy,60,2013-07-15 13:15:00
9:35 AM,80.6,75.6,85,30.31,10.0,East,3.5,-,N/A,,Mostly Cloudy,90,2013-07-15 13:35:00
9:55 AM,82.0,76.1,82,30.31,10.0,Calm,Calm,-,N/A,,Mostly Cloudy,0,2013-07-15 13:55:00
10:15 AM,82.2,75.4,80,30.31,10.0,East,3.5,-,N/A,,Mostly Cloudy,80,2013-07-15 14:15:00
10:35 AM,82.4,74.3,76,30.31,10.0,Calm,Calm,-,N/A,,Scattered Clouds,0,2013-07-15 14:35:00
10:55 AM,84.4,74.7,72,30.31,10.0,ENE,3.5,-,N/A,,Scattered Clouds,60,2013-07-15 14:55:00
11:15 AM,84.7,74.7,72,30.31,10.0,ENE,3.5,-,N/A,,Scattered Clouds,70,2013-07-15 15:15:00
11:35 AM,85.3,74.3,70,30.31,10.0,East,3.5,-,N/A,,Scattered Clouds,100,2013-07-15 15:35:00
11:55 AM,85.8,73.0,65,30.31,10.0,East,4.6,-,N/A,,Scattered Clouds,80,2013-07-15 15:55:00
12:15 PM,84.9,73.4,68,30.31,10.0,Calm,Calm,-,N/A,,Scattered Clouds,0,2013-07-15 16:15:00
12:35 PM,85.6,73.6,67,30.31,10.0,Calm,Calm,-,N/A,,Scattered Clouds,0,2013-07-15 16:35:00
12:55 PM,87.4,73.2,63,30.31,10.0,NE,3.5,-,N/A,,Scattered Clouds,50,2013-07-15 16:55:00
1:15 PM,88.3,72.9,60,30.31,10.0,Calm,Calm,-,N/A,,Scattered Clouds,0,2013-07-15 17:15:00
1:35 PM,87.1,72.3,61,30.30,10.0,ENE,4.6,-,N/A,,Scattered Clouds,60,2013-07-15 17:35:00
1:55 PM,87.3,72.9,62,30.29,10.0,NNE,4.6,-,N/A,,Mostly Cloudy,30,2013-07-15 17:55:00
2:15 PM,88.5,70.9,56,30.29,10.0,NNE,5.8,-,N/A,,Scattered Clouds,20,2013-07-15 18:15:00
2:35 PM,88.9,72.1,58,30.28,10.0,NE,3.5,-,N/A,,Scattered Clouds,50,2013-07-15 18:35:00
2:55 PM,89.8,73.0,58,30.28,10.0,East,5.8,-,N/A,,Scattered Clouds,90,2013-07-15 18:55:00
3:15 PM,89.6,72.1,56,30.27,10.0,East,3.5,-,N/A,,Scattered Clouds,90,2013-07-15 19:15:00
3:35 PM,90.0,72.7,57,30.27,10.0,East,6.9,-,N/A,,Scattered Clouds,90,2013-07-15 19:35:00
3:55 PM,90.5,73.2,57,30.27,10.0,ENE,3.5,-,N/A,,Mostly Cloudy,70,2013-07-15 19:55:00
4:15 PM,90.0,70.5,53,30.26,10.0,ESE,3.5,-,N/A,,Scattered Clouds,110,2013-07-15 20:15:00
4:35 PM,90.0,71.6,55,30.26,10.0,NE,3.5,-,N/A,,Scattered Clouds,40,2013-07-15 20:35:00
4:55 PM,89.8,71.4,55,30.26,10.0,ENE,3.5,-,N/A,,Clear,70,2013-07-15 20:55:00
5:15 PM,89.8,72.3,56,30.26,10.0,NE,5.8,-,N/A,,Scattered Clouds,50,2013-07-15 21:15:00
5:35 PM,90.5,72.0,54,30.25,10.0,East,4.6,-,N/A,,Scattered Clouds,80,2013-07-15 21:35:00
5:55 PM,89.6,72.0,56,30.25,10.0,ENE,4.6,-,N/A,,Scattered Clouds,70,2013-07-15 21:55:00
6:15 PM,87.3,72.0,60,30.25,10.0,Calm,Calm,-,N/A,,Scattered Clouds,0,2013-07-15 22:15:00
6:35 PM,86.4,73.4,65,30.25,10.0,Calm,Calm,-,N/A,,Clear,0,2013-07-15 22:35:00
6:55 PM,88.5,72.1,58,30.25,10.0,East,3.5,-,N/A,,Clear,80,2013-07-15 22:55:00
7:15 PM,87.8,72.9,61,30.25,10.0,Calm,Calm,-,N/A,,Scattered Clouds,0,2013-07-15 23:15:00
7:35 PM,86.2,73.9,67,30.25,10.0,Calm,Calm,-,N/A,,Scattered Clouds,0,2013-07-15 23:35:00
7:55 PM,84.2,74.5,72,30.25,10.0,Calm,Calm,-,N/A,,Scattered Clouds,0,2013-07-15 23:55:00
8:15 PM,81.7,75.4,81,30.26,10.0,Calm,Calm,-,N/A,,Scattered Clouds,0,2013-07-16 00:15:00
8:35 PM,80.1,75.2,85,30.26,10.0,Calm,Calm,-,N/A,,Scattered Clouds,0,2013-07-16 00:35:00
8:55 PM,79.3,76.1,90,30.26,10.0,Calm,Calm,-,N/A,,Scattered Clouds,0,2013-07-16 00:55:00
9:15 PM,80.1,74.7,83,30.26,10.0,Calm,Calm,-,N/A,,Clear,0,2013-07-16 01:15:00
9:35 PM,79.3,74.5,85,30.27,7.0,Calm,Calm,-,N/A,,Clear,0,2013-07-16 01:35:00
9:55 PM,78.8,74.3,86,30.28,10.0,Calm,Calm,-,N/A,,Clear,0,2013-07-16 01:55:00
10:15 PM,77.7,74.3,89,30.28,10.0,Calm,Calm,-,N/A,,Clear,0,2013-07-16 02:15:00
10:35 PM,77.2,74.1,90,30.28,10.0,Calm,Calm,-,N/A,,Clear,0,2013-07-16 02:35:00
10:55 PM,76.1,73.9,93,30.28,10.0,Calm,Calm,-,N/A,,Clear,0,2013-07-16 02:55:00
11:15 PM,75.4,73.6,94,30.28,10.0,Calm,Calm,-,N/A,,Clear,0,2013-07-16 03:15:00
11:35 PM,75.4,73.9,95,30.28,10.0,Calm,Calm,-,N/A,,Clear,0,2013-07-16 03:35:00
11:55 PM,74.7,73.6,96,30.28,10.0,Calm,Calm,-,N/A,,Clear,0,2013-07-16 03:55:00